Columbus, OH

6:19 PM EST on December 14, 2017 (GMT -0500)
Port Columbus International

Weather History for KCMH - January, 2014

Change the Weather History Date:

Wednesday, January 22, 2014

  Actual Average Record
Temperature  
Mean Temperature 7 °F 29 °F  
Max Temperature 13 °F 37 °F 71 °F (1906)
Min Temperature 0 °F 22 °F -16 °F (1936)
Degree Days  
Heating Degree Days 58 36  
Month to date heating degree days 859 785  
Since 1 July heating degree days 2852 2776  
Cooling Degree Days 0 0  
Month to date cooling degree days 0 0  
Year to date cooling degree days 0 0  
Moisture  
Dew Point 0 °F    
Average Humidity 68    
Maximum Humidity 83    
Minimum Humidity 52    
Precipitation  
Precipitation 0.01 in 0.09 in 1.33 in (1937)
Month to date precipitation 1.97 1.98  
Year to date precipitation 1.97 1.98  
Snow  
Snow 0.40 in 0.30 in 5.90 in (1966)
Month to date snowfall 8.9 6.6  
Since 1 July snowfall 26.3 12.7  
Snow Depth 1.00 in    
Sea Level Pressure  
Sea Level Pressure 30.11 in    
Wind  
Wind Speed 6 mph (SW)    
Max Wind Speed 13 mph    
Max Gust Speed 17 mph    
Visibility 8 miles    
Events Snow    
T = Trace of Precipitation, MM = Missing Value Source: NWS Daily Summary

Daily Weather History Graph

Daily Weather History Graph

Search for Another Location

Airport or City:

Trip Planner

Search our weather history database for the weather conditions in past years. The results will help you decide how hot, cold, wet, or windy it might be!

Date:

Astronomy

Jan. 22, 2014 Rise Set
Actual Time 7:47 AM EST 5:38 PM EST
Civil Twilight 7:18 AM EST 6:08 PM EST
Nautical Twilight 6:45 AM EST 6:41 PM EST
Astronomical Twilight 6:13 AM EST 7:13 PM EST
Moon No Moon Rise 10:48 AM EST (1/22)
Length of Visible Light 10h 49m
Length of Day
9h 50m
Waning Gibbous, 65% of the Moon is Illuminated
Jan 22
Waning Gibbous
Jan 24
Last Quarter
Jan 30
New
Feb 6
First Quarter
Feb 14
Full

Hourly Weather History & Observations

Time (EST) Temp. Windchill Dew Point Humidity Pressure Visibility Wind Dir Wind Speed Gust Speed Precip Events Conditions
12:51 AM 5.0 °F -2.1 °F -0.9 °F 76% 30.19 in 10.0 mi North 3.5 mph - N/A   Scattered Clouds
1:51 AM 5.0 °F -5.6 °F -0.9 °F 76% 30.18 in 10.0 mi NW 5.8 mph - N/A   Partly Cloudy
2:51 AM 3.0 °F -4.4 °F -2.0 °F 80% 30.19 in 10.0 mi NW 3.5 mph - N/A   Clear
3:51 AM 3.0 °F - -2.0 °F 80% 30.19 in 9.0 mi Calm Calm - N/A   Scattered Clouds
4:51 AM 1.9 °F -7.6 °F -4.0 °F 76% 30.17 in 10.0 mi West 4.6 mph - N/A   Clear
5:51 AM 1.9 °F -7.6 °F -5.1 °F 72% 30.17 in 10.0 mi WNW 4.6 mph - N/A   Clear
6:51 AM 1.9 °F -7.6 °F -6.0 °F 69% 30.19 in 10.0 mi NW 4.6 mph - N/A   Clear
7:51 AM 1.0 °F - -7.1 °F 69% 30.19 in 10.0 mi Calm Calm - N/A   Partly Cloudy
8:51 AM 1.9 °F - -5.1 °F 72% 30.18 in 10.0 mi Calm Calm - N/A   Partly Cloudy
9:51 AM 5.0 °F -2.1 °F -2.9 °F 70% 30.18 in 10.0 mi SSW 3.5 mph - N/A   Partly Cloudy
10:51 AM 7.0 °F -1.7 °F -2.0 °F 67% 30.17 in 9.0 mi SW 4.6 mph - N/A   Scattered Clouds
11:51 AM 9.0 °F -3.2 °F -2.0 °F 61% 30.15 in 10.0 mi SW 8.1 mph - N/A   Mostly Cloudy
12:51 PM 10.0 °F -0.9 °F -4.0 °F 53% 30.11 in 10.0 mi SSW 6.9 mph - N/A   Mostly Cloudy
1:51 PM 10.0 °F -3.7 °F -4.0 °F 53% 30.10 in 10.0 mi SSW 10.4 mph - N/A   Overcast
2:51 PM 10.9 °F -0.8 °F -4.0 °F 51% 30.07 in 9.0 mi SSW 8.1 mph - N/A   Mostly Cloudy
3:51 PM 12.0 °F 0.5 °F -2.9 °F 51% 30.08 in 10.0 mi South 8.1 mph - N/A   Overcast
4:51 PM 12.0 °F 0.5 °F -0.9 °F 56% 30.07 in 8.0 mi SSW 8.1 mph - 0.00 in Snow Light Snow
5:51 PM 12.0 °F 0.5 °F -0.0 °F 59% 30.07 in 9.0 mi South 8.1 mph - 0.00 in Snow Light Snow
6:51 PM 12.0 °F -1.3 °F 1.9 °F 64% 30.08 in 8.0 mi SSW 10.4 mph - 0.00 in Snow Light Snow
7:51 PM 12.9 °F -0.2 °F 5.0 °F 71% 30.09 in 5.0 mi SSW 10.4 mph - 0.00 in Snow Light Snow
8:51 PM 12.9 °F 0.7 °F 5.0 °F 71% 30.09 in 4.0 mi SSW 9.2 mph - 0.00 in Snow Light Snow
8:59 PM 12.2 °F -1.0 °F 5.0 °F 73% 30.03 in 3.0 mi SSW 10.4 mph - 0.00 in Snow Light Snow
9:23 PM 12.2 °F -1.0 °F 5.0 °F 73% 30.03 in 5.0 mi SSW 10.4 mph - 0.00 in Snow Light Snow
9:51 PM 12.0 °F -0.4 °F 5.0 °F 73% 30.07 in 5.0 mi SSW 9.2 mph - 0.00 in Snow Light Snow
10:24 PM 12.2 °F -0.2 °F 5.0 °F 73% 30.02 in 4.0 mi South 9.2 mph - 0.00 in Snow Light Snow
10:41 PM 12.2 °F 0.7 °F 6.8 °F 79% 30.01 in 5.0 mi South 8.1 mph - 0.00 in Snow Light Snow
10:51 PM 12.0 °F 1.5 °F 6.1 °F 77% 30.06 in 4.0 mi SSW 6.9 mph - 0.00 in Snow Light Snow
11:29 PM 12.2 °F -1.0 °F 6.8 °F 79% 30.00 in 4.0 mi SSW 10.4 mph - 0.00 in Snow Light Snow
11:51 PM 12.9 °F 0.7 °F 7.0 °F 77% 30.05 in 3.0 mi SSW 9.2 mph - 0.00 in Snow Light Snow